Change the Weather History Date:

Thursday, December 12, 2013

  Actual Average Record
Temperature  
Mean Temperature 20 °F 32 °F  
Max Temperature 26 °F 37 °F 62 °F (1949)
Min Temperature 13 °F 27 °F -2 °F (1958)
Degree Days  
Heating Degree Days 45 33  
Month to date heating degree days 442 374  
Since 1 July heating degree days 1678 1597  
Cooling Degree Days 0 0  
Month to date cooling degree days 0 0  
Year to date cooling degree days 813 693  
Moisture  
Dew Point 12 °F    
Average Humidity 76    
Maximum Humidity 84    
Minimum Humidity 67    
Precipitation  
Precipitation T in 0.08 in 1.05 in (1967)
Month to date precipitation 0.48 1.13  
Year to date precipitation 38.99 35.29  
Sea Level Pressure  
Sea Level Pressure 30.32 in    
Wind  
Wind Speed 14 mph (WSW)    
Max Wind Speed 30 mph    
Max Gust Speed 37 mph    
Visibility 5 miles    
Events Snow    
T = Trace of Precipitation, MM = Missing Value Source: NWS Daily Summary

Daily Weather History Graph

Daily Weather History Graph

Search for Another Location

Airport or City:

Trip Planner

Search our weather history database for the weather conditions in past years. The results will help you decide how hot, cold, wet, or windy it might be!

Date:

Astronomy

Dec. 12, 2013 Rise Set
Actual Time 8:05 AM EST 5:10 PM EST
Civil Twilight 7:33 AM EST 5:42 PM EST
Nautical Twilight 6:58 AM EST 6:18 PM EST
Astronomical Twilight 6:23 AM EST 6:52 PM EST
Moon 2:21 PM EST (12/12) 3:22 AM EST (12/12)
Length of Visible Light 10h 09m
Length of Day
9h 04m
Waxing Gibbous, 80% of the Moon is Illuminated
Dec 12
Waxing Gibbous
Dec 17
Full
Dec 25
Last Quarter
Jan 1
New
Jan 7
First Quarter

Hourly Weather History & Observations

Time (EST) Temp. Windchill Dew Point Humidity Pressure Visibility Wind Dir Wind Speed Gust Speed Precip Events Conditions
12:53 AM 14.0 °F 0.5 °F 5.0 °F 67% 30.48 in 10.0 mi West 11.5 mph - 0.00 in   Overcast
1:53 AM 15.1 °F 3.3 °F 6.1 °F 68% 30.47 in 9.0 mi West 9.2 mph - 0.00 in Snow Light Snow
2:53 AM 15.1 °F 1.8 °F 6.1 °F 68% 30.46 in 8.0 mi West 11.5 mph - 0.00 in Snow Light Snow
3:06 AM 15.1 °F -0.6 °F 9.0 °F 77% 30.42 in 1.8 mi West 16.1 mph - 0.00 in Snow Light Snow
3:09 AM 15.1 °F 0.5 °F 9.0 °F 77% 30.42 in 1.2 mi West 13.8 mph - 0.00 in Snow Light Snow
3:28 AM 14.0 °F -2.0 °F 9.0 °F 80% 30.43 in 1.8 mi West 16.1 mph 25.3 mph 0.00 in Snow Light Snow
3:40 AM 14.0 °F -0.2 °F 8.1 °F 77% 30.43 in 3.0 mi West 12.7 mph 24.2 mph 0.00 in Snow Light Snow
3:53 AM 12.9 °F -1.6 °F 7.0 °F 77% 30.47 in 3.0 mi West 12.7 mph - 0.00 in Snow Light Snow
4:53 AM 14.0 °F -0.8 °F 6.1 °F 71% 30.45 in 10.0 mi WSW 13.8 mph - 0.00 in   Overcast
5:53 AM 15.1 °F -1.1 °F 6.1 °F 68% 30.43 in 10.0 mi WSW 17.3 mph - N/A   Mostly Cloudy
6:28 AM 16.0 °F -0.4 °F 6.1 °F 65% 30.37 in 10.0 mi West 18.4 mph - N/A   Mostly Cloudy
6:35 AM 16.0 °F -0.9 °F 7.0 °F 68% 30.37 in 10.0 mi West 19.6 mph - N/A   Mostly Cloudy
6:53 AM 16.0 °F 0.1 °F 8.1 °F 71% 30.42 in 10.0 mi West 17.3 mph 25.3 mph N/A   Overcast
7:27 AM 17.1 °F 2.0 °F 8.1 °F 68% 30.37 in 7.0 mi West 16.1 mph 24.2 mph 0.00 in Snow Light Snow
7:45 AM 17.1 °F 0.1 °F 10.0 °F 74% 30.36 in 3.0 mi West 20.7 mph - 0.00 in Snow Light Snow
7:53 AM 17.1 °F 1.5 °F 10.0 °F 74% 30.40 in 2.0 mi WSW 17.3 mph - 0.00 in Snow Light Snow
8:04 AM 17.1 °F 1.5 °F 10.9 °F 77% 30.35 in 1.5 mi West 17.3 mph 25.3 mph 0.00 in Snow Light Snow
8:25 AM 17.1 °F 2.0 °F 10.0 °F 74% 30.34 in 2.0 mi WSW 16.1 mph 24.2 mph 0.00 in Snow Light Snow
8:41 AM 17.1 °F 2.5 °F 10.9 °F 77% 30.33 in 1.2 mi WSW 15.0 mph - 0.00 in Snow Light Snow
8:44 AM 17.1 °F 2.5 °F 12.0 °F 81% 30.33 in 0.5 mi WSW 15.0 mph - 0.00 in Snow Snow
8:51 AM 17.6 °F 3.2 °F 10.4 °F 73% 30.33 in 1.0 mi WSW 15.0 mph - 0.00 in Snow Light Snow
8:53 AM 18.0 °F 4.8 °F 10.0 °F 71% 30.37 in 4.0 mi WSW 12.7 mph - 0.00 in Snow Light Snow
9:14 AM 18.0 °F 2.6 °F 10.0 °F 71% 30.32 in 10.0 mi SW 17.3 mph - 0.00 in   Overcast
9:48 AM 19.4 °F 4.1 °F 10.4 °F 68% 30.32 in 1.8 mi SW 18.4 mph - 0.00 in Snow Light Snow
9:53 AM 19.0 °F 3.6 °F 12.0 °F 74% 30.36 in 1.2 mi SW 18.4 mph - 0.00 in Snow Light Snow
10:20 AM 19.0 °F 2.4 °F 12.0 °F 74% 30.31 in 2.0 mi SW 21.9 mph 28.8 mph 0.00 in Snow Light Snow
10:28 AM 19.0 °F 2.7 °F 12.0 °F 74% 30.31 in 3.0 mi SW 20.7 mph - 0.00 in Snow Light Snow
10:53 AM 17.1 °F 3.0 °F 10.0 °F 74% 30.34 in 9.0 mi South 13.8 mph 26.5 mph 0.00 in   Overcast
11:21 AM 14.0 °F -0.8 °F 8.1 °F 77% 30.29 in 10.0 mi SSW 13.8 mph - N/A   Overcast
11:37 AM 19.9 °F 3.9 °F 12.9 °F 74% 30.28 in 3.0 mi WSW 20.7 mph 36.8 mph N/A   Haze
11:53 AM 19.9 °F 1.8 °F 12.9 °F 74% 30.32 in 1.5 mi WSW 27.6 mph 35.7 mph 0.00 in Snow Light Snow
12:32 PM 19.9 °F 2.8 °F 12.9 °F 74% 30.26 in 3.0 mi West 24.2 mph 32.2 mph 0.00 in Snow Light Snow
12:44 PM 19.9 °F 4.3 °F 12.9 °F 74% 30.26 in 2.5 mi WSW 19.6 mph 33.4 mph 0.00 in Snow Light Snow
12:53 PM 19.9 °F 4.8 °F 12.9 °F 74% 30.30 in 3.0 mi West 18.4 mph 31.1 mph 0.00 in Snow Light Snow
1:05 PM 19.0 °F 2.0 °F 12.9 °F 77% 30.26 in 1.8 mi West 23.0 mph 32.2 mph 0.00 in Snow Light Snow
1:20 PM 19.0 °F 2.7 °F 12.9 °F 77% 30.25 in 2.5 mi West 20.7 mph 27.6 mph 0.00 in Snow Light Snow
1:53 PM 19.0 °F 4.5 °F 12.9 °F 77% 30.28 in 2.5 mi WSW 16.1 mph 27.6 mph 0.00 in Snow Light Snow
2:13 PM 19.9 °F 5.7 °F 14.0 °F 78% 30.24 in 2.5 mi West 16.1 mph 24.2 mph 0.00 in Snow Light Snow
2:24 PM 19.9 °F 6.2 °F 14.0 °F 78% 30.24 in 3.0 mi West 15.0 mph - 0.00 in Snow Light Snow
2:49 PM 19.4 °F 4.5 °F 14.0 °F 80% 30.23 in 2.5 mi West 17.3 mph 24.2 mph 0.00 in Snow Light Snow
2:53 PM 19.9 °F 5.7 °F 14.0 °F 78% 30.27 in 2.5 mi West 16.1 mph 25.3 mph 0.00 in Snow Light Snow
3:01 PM 19.9 °F 6.7 °F 15.1 °F 81% 30.23 in 3.0 mi West 13.8 mph 25.3 mph 0.00 in Snow Light Snow
3:53 PM 19.9 °F 7.3 °F 15.1 °F 81% 30.27 in 5.0 mi West 12.7 mph - 0.00 in Snow Light Snow
4:53 PM 21.9 °F 10.4 °F 16.0 °F 78% 30.26 in 10.0 mi West 11.5 mph 19.6 mph 0.00 in   Overcast
5:16 PM 21.9 °F 9.2 °F 16.0 °F 78% 30.22 in 10.0 mi West 13.8 mph - N/A   Overcast
5:53 PM 23.0 °F 11.1 °F 17.1 °F 78% 30.25 in 10.0 mi West 12.7 mph - N/A   Overcast
6:53 PM 24.1 °F 13.1 °F 18.0 °F 77% 30.23 in 10.0 mi West 11.5 mph 20.7 mph N/A   Overcast
7:53 PM 25.0 °F 13.1 °F 19.0 °F 78% 30.24 in 10.0 mi West 13.8 mph - N/A   Overcast
8:53 PM 26.1 °F 16.8 °F 19.0 °F 75% 30.23 in 10.0 mi West 9.2 mph - N/A   Overcast
9:53 PM 26.1 °F 15.6 °F 19.0 °F 75% 30.22 in 10.0 mi West 11.5 mph - N/A   Overcast
10:53 PM 26.1 °F 15.6 °F 19.0 °F 75% 30.22 in 10.0 mi West 11.5 mph - N/A   Overcast
11:53 PM 26.1 °F 16.8 °F 19.9 °F 78% 30.19 in 10.0 mi West 9.2 mph - N/A   Overcast